Flag for Brazil Weather past 2 weeks in Itumbiara, Goiás, Brazil

Now
66 °F

Sunny.


Feels Like: 66 °F
Forecast: 69 / 92 °F
Wind: 3 mph from Southeast

Location: Goiania Aeroporto

Current Time: Jul 29, 2015 at 8:31:24 AM

Latest Report: Jul 29, 2015 at 8:00 AM


Visibility: 10 mi

Pressure: 30.15 "Hg

Humidity: 60%

Dew point: 52 °F

Location of ItumbiaraLocation

Historic Weather in Itumbiara — Graph

°F

Itumbiara temperature yesterday

Maximum temperature yesterday: 90 °F (at 4:00 PM)
Minimum temperature yesterday: 63 °F (at 6:00 AM)
Average temperature yesterday: 75 °F

Past Weeks' High & Low Weather Summary

 TemperatureHumidityPressure
High90 °F (Jul 26, 4:00 PM)88% (Jul 17, 4:00 AM)30.27 "Hg (Jul 17, 4:00 AM)
Low55 °F (Jul 18, 7:00 AM)17% (Jul 27, 5:00 PM)30.01 "Hg (Jul 27, 3:00 PM)
Average72 °F50%30.13 "Hg
* Reported Jul 14 7:00 AM — Jul 29 7:00 AM, Itumbiara, Weather by CustomWeather, © 2015

Note: Actual official high and low records may vary slightly from our data, if they occured in-between our weather recording intervals... More about our weather records

Advertising

Itumbiara weather history for previous 24 hours

 ConditionsComfort  
Time TempWeatherWind HumidityBarometerVisibility
7:00 AM
Wed, Jul 29
61 °FSunny.3 mph77%30.12 "Hg10 mi
6:00 AM63 °FClear.5 mph73%30.12 "Hg10 mi
5:00 AM63 °FClear.3 mph73%30.09 "Hg10 mi
4:00 AM64 °FClear.3 mph68%30.09 "Hg10 mi
3:00 AM66 °FClear.6 mph64%30.09 "Hg10 mi
2:00 AM66 °FClear.5 mph64%30.09 "Hg10 mi
1:00 AM68 °FClear.No wind64%30.12 "Hg10 mi
12:00 AM68 °FClear.2 mph64%30.12 "Hg10 mi
11:00 PM
Tue, Jul 28
70 °FClear.No wind60%30.12 "Hg10 mi
10:00 PM73 °FClear.5 mph47%30.12 "Hg10 mi
9:00 PM75 °FClear.No wind50%30.12 "Hg10 mi
8:00 PM77 °FClear.6 mph39%30.09 "Hg10 mi
7:00 PM81 °FClear.7 mph32%30.09 "Hg10 mi
6:00 PM84 °FSunny.5 mph25%30.07 "Hg10 mi
5:00 PM86 °FPartly sunny.6 mph22%30.04 "HgN/A
4:00 PM90 °FPartly sunny.3 mph18%30.04 "HgN/A
3:00 PM88 °FPartly sunny.8 mph19%30.07 "HgN/A
2:00 PM88 °FScattered clouds.5 mph19%30.07 "HgN/A
1:00 PM86 °FPartly sunny.5 mph19%30.09 "HgN/A
12:00 PM88 °FPassing clouds.7 mph25%30.12 "HgN/A
11:00 AM84 °FSunny.6 mph31%30.12 "Hg10 mi
10:00 AM75 °FSunny.5 mph47%30.15 "Hg10 mi
9:00 AM70 °FPassing clouds.8 mph57%30.12 "HgN/A
8:00 AM66 °FPassing clouds.9 mph64%30.12 "HgN/A
Weather by CustomWeather, © 2015

See weather overviewHow to use our weather pages